DECAYED

STARLINK-1375, 45546 (Decayed)

Orbit data source: Space-Track

STARLINK-1375, 45546 was a payload satellite owned by SpaceX/Seattle (US) in LEO that was launched on Wed, 22 Apr 2020 UTC via an FALCON 9 launch vehicle from the Air Force Eastern Test Range (AFETR). Payload-class satellites include a variety of spacecraft equipped with specific instruments for various scientific and technological missions. These include communications satellites like Starlink; space stations such as the ISS; scientific satellites like the Hubble; Earth observation satellites from companies like Planet Labs, Umbra, and HawkEye 360; GPS; miniature CubeSats for education and research; and military/defense satellites.

Not visible in the next 10 days
Identifier
45546, 2020-025R
Orbit
Decayed
Country
Flag of USUS
Related business
Manufacturer
SpaceX/Seattle
Mission
Decayed Commercial Communications
Bus & Motor
STARLINK, Unknown motor
Mass
260 kg wet, ~248 kg dry
Launch date (UTC)
2020-04-22 (5 years ago)
Launch vehicle
FALCON 9
Launch site
Air Force Eastern Test Range (AFETR)
Object type
Payload
Rocket body
Debris
Shape & HBR
Box + 1 Pan, 10.1 m
Radar Cross Section
13.562 m², Large (>1 m²)

Expand to show TLE details & history
Last TLE update: 7 months ago

TLE from 7 months ago
0 STARLINK-1375
1 45546U 20025R   25071.57005896  .14475558  12580-4  42090-3 0  9995
2 45546  53.0300 254.9532 0007781 310.6835 157.9926 16.44748846270141
Epoch: 2025-03-12T13:40Z
TLE epoch observation values (Epoch: 2025-03-12T13:40:53.094Z)
Latitude
49.33184°
Longitude
-1.30835°
Altitude
163.519 km
Speed
7.812 km/s
True Right ascension
00h 57m 28s
True Declination
49° 08' 47"
Sunlit
Object was in daylight at epoch
Visualization orbit readout
Latitude
Unknown
Longitude
Unknown
Altitude
Unknown
Speed
Unknown
Apparent Right ascension
Unknown
Apparent Declination
Unknown
Sunlit
N/A
Visualization observer readout
Local Sidereal Time
12:35:42
Azimuth
Unknown
Elevation
Unknown
Doppler factor
Unknown
Orbital elements
Apogee altitude
158.573 km
Perigee altitude
148.409 km
Semi-major axis
6,531.628 km
Eccentricity
0.00078
Inclination
53.03°
RAAN
254.9532°
Arg. of periapsis
310.6835°
True anomaly
158.02598°
Mean anomaly
157.9926°
Eccentric anomaly
158.00929°
Mean motion
4.1116 °/min
Orbital period
87.56 mins
BSTAR
0.0004209
Loading maneuver chart data...
Computing Atmospheric mass density...

Documentation

Showing up to 5 results
|